Dewpoint
68 69 71 70 71 72 72 72 72 73 73 73 72 71 71 71 73 73 71 70 70 69 69 69 69 70 70 71 71 72 71 72 72 73 72 72 72 72 71 70 69 67 71
68 69 71 72 71 71 72 72 72 72 73 72 72 71 72 73 72 71 71 72 72 71 70 68 70 69 69 70 70 70 70 71 72 72 72 72 72 72 71 70 69 70 71
65 66 69 73 72 74 73 73 73 72 72 72 72 73 72 72 72 71 71 71 71 71 70 70 69 70 70 69 70 71 71 72 72 71 70 69 70 71 71 71 71 71 71
62 62 66 73 73 73 73 73 73 73 73 73 73 72 72 71 71 71 72 71 71 71 70 70 70 71 71 70 69 71 71 72 71 70 68 67 67 71 71 71 71 71 71
61 61 70 72 73 73 73 73 72 72 72 72 72 72 72 71 71 72 71 70 70 71 70 70 69 69 69 69 70 70 71 71 70 68 68 68 67 71 71 71 71 71 70
61 61 72 73 73 72 72 73 72 72 72 72 72 72 72 71 71 71 71 71 71 70 70 70 69 69 69 70 70 70 70 69 69 67 66 69 69 71 71 71 71 70 71
60 63 69 73 73 72 72 72 72 72 72 72 72 72 71 71 71 71 71 71 71 70 70 69 69 69 69 70 70 71 69 68 66 66 67 68 69 71 71 70 70 70 70
60 62 67 72 73 72 71 73 73 72 72 72 72 72 72 72 71 71 71 70 70 70 70 70 69 69 69 70 71 70 68 66 64 66 68 66 71 71 71 71 70 70 71
60 62 65 68 71 72 72 73 72 72 72 72 72 72 72 72 71 70 70 70 70 69 69 69 69 69 69 71 71 70 70 68 63 63 61 63 71 71 71 71 71 70 70
60 62 63 65 67 69 70 72 72 73 72 72 72 72 72 72 71 70 70 70 68 68 68 69 69 69 70 71 71 70 70 69 62 62 64 67 70 70 71 71 70 70 69
60 62 61 64 66 69 69 71 72 73 73 72 72 73 72 65 65 67 70 70 70 69 68 68 69 70 70 71 71 70 71 60 60 61 63 71 70 70 71 71 71 70 69
59 61 61 66 66 69 66 70 70 69 67 66 67 69 66 66 66 64 68 70 69 69 71 71 70 69 70 66 66 69 62 63 60 61 65 70 70 70 71 71 71 70 70
59 59 61 64 66 68 68 68 67 65 66 68 69 68 68 66 63 64 66 66 65 68 65 67 67 64 64 63 63 62 63 61 61 60 68 70 70 70 70 70 70 71 70
59 60 61 64 66 66 67 64 64 64 65 65 67 69 68 66 65 64 64 65 65 65 65 65 62 65 64 66 64 63 62 59 60 61 68 71 69 71 71 70 70 70 70
59 61 61 64 67 67 68 65 64 65 65 64 67 68 66 65 66 66 67 65 65 65 64 64 63 64 65 64 64 64 62 61 60 61 67 70 70 68 70 71 71 70 69
60 61 62 64 67 68 67 68 68 66 66 65 64 65 69 67 69 66 66 67 67 66 65 64 63 61 59 61 65 63 63 62 63 61 62 68 70 70 68 68 69 69 70
60 62 63 64 66 67 68 69 67 66 64 65 65 68 70 70 70 68 67 67 67 67 68 66 63 62 58 59 63 64 62 63 63 63 62 62 68 69 70 70 69 68 68
58 61 63 62 63 66 66 67 64 65 65 65 66 68 69 70 71 69 67 67 68 66 64 61 58 62 63 56 60 60 61 61 63 63 63 62 62 64 69 69 70 70 70
59 62 63 63 62 64 66 65 65 66 66 66 66 66 70 70 71 69 67 69 69 66 65 61 60 61 59 55 56 57 58 59 60 60 63 62 63 62 63 69 70 69 69
60 62 63 64 63 64 65 65 63 64 66 66 66 66 70 69 70 71 68 68 67 65 66 64 63 61 59 56 55 55 57 58 60 59 60 59 60 61 61 65 66 68 69
61 63 63 64 65 65 64 61 62 63 64 65 65 68 70 69 70 72 69 67 68 65 64 66 63 64 59 60 56 53 55 58 61 60 59 58 60 59 61 61 62 62 66
61 63 64 64 66 67 63 62 62 62 62 64 66 69 70 70 71 70 69 67 68 67 65 65 66 59 58 59 54 52 52 55 56 58 59 59 59 59 60 62 61 63 62
61 63 64 65 66 67 63 62 65 65 65 66 67 67 69 70 70 71 69 68 67 67 65 66 67 63 57 60 62 58 52 53 54 57 60 58 60 59 60 61 61 61 63
61 63 64 66 67 67 66 62 65 63 61 61 64 64 67 70 70 70 71 69 68 69 67 67 67 62 63 57 59 58 60 60 53 54 56 57 60 59 60 60 59 61 62
60 63 65 66 68 67 67 65 63 63 58 60 62 65 67 70 70 69 71 69 69 68 69 69 69 67 61 59 57 58 60 58 59 55 52 55 57 57 57 60 58 59 61
60 62 64 67 68 68 67 67 66 63 60 60 63 63 64 65 68 70 71 71 69 68 70 69 69 70 66 63 60 60 58 58 57 56 55 56 56 57 58 58 59 59 59
Wind_Speed
8 10 9 14 13 14 13 13 13 14 15 16 16 15 13 12 11 12 11 11 11 12 12 11 10 10 9 10 10 9 10 9 11 12 13 12 15 14 12 11 12 18 16
16 14 14 13 14 14 13 13 13 14 14 14 13 12 12 11 12 11 10 10 9 11 11 12 10 11 10 10 10 9 8 9 11 11 14 14 14 14 12 15 17 16 16
21 19 16 12 14 12 15 13 13 13 13 13 13 12 12 11 11 10 10 11 11 11 12 10 10 10 10 11 10 11 10 9 9 8 8 11 15 14 14 15 15 16 16
21 20 19 12 14 14 13 12 14 14 12 12 12 12 12 11 11 10 11 11 10 10 11 11 11 10 11 11 11 11 12 12 8 3 9 7 15 13 14 15 15 15 16
21 19 19 14 14 14 14 12 14 14 13 13 13 12 12 11 12 11 10 10 10 10 11 11 9 8 9 10 9 11 12 10 4 4 10 9 12 12 13 14 15 14 16
20 19 18 16 15 13 14 15 14 13 13 13 13 13 13 12 12 11 11 11 10 11 10 10 9 8 8 7 8 10 10 6 5 8 12 12 13 12 13 14 15 14 14
20 20 19 16 16 15 15 15 14 13 13 13 13 13 13 13 12 13 11 11 11 11 10 9 9 9 9 11 11 11 9 2 9 9 13 10 13 11 13 13 13 14 13
20 21 20 14 16 15 15 14 13 13 13 12 13 13 15 13 14 13 12 12 11 11 10 8 8 9 10 14 14 12 9 4 8 11 9 12 10 12 12 12 13 13 13
20 20 18 18 16 15 15 14 13 13 12 12 14 14 14 13 14 12 12 11 11 11 9 8 8 9 11 12 13 12 8 4 9 8 10 12 9 10 12 10 11 13 11
19 19 18 17 16 15 16 13 12 12 11 13 14 13 12 13 13 11 12 10 11 10 9 8 7 9 12 12 13 12 9 7 10 8 13 12 8 11 11 11 11 11 11
19 18 18 15 16 12 13 14 13 12 11 14 12 10 14 11 12 11 13 8 9 8 8 6 7 7 12 12 11 9 11 7 6 7 14 8 8 10 10 10 10 10 10
21 20 17 17 17 12 16 13 11 13 13 12 11 9 7 8 8 12 10 7 7 7 8 6 6 7 15 15 10 12 8 7 6 7 13 5 8 9 9 9 9 8 9
23 19 17 16 14 16 11 14 13 10 10 9 8 8 7 8 10 7 9 8 8 5 7 7 10 3 4 3 6 10 8 5 6 9 12 7 7 8 8 8 7 8 7
23 20 18 16 14 12 12 11 10 10 10 10 10 7 7 7 6 5 4 6 4 3 4 0 7 5 3 2 5 6 7 6 6 8 12 7 6 7 6 7 7 7 6
23 21 19 17 15 13 11 10 10 9 9 9 9 7 5 4 5 5 5 2 2 3 3 3 4 4 5 6 7 6 8 7 5 5 14 8 4 4 5 6 7 6 4
22 21 19 17 16 14 12 10 9 8 7 7 7 8 5 3 3 7 5 1 1 1 3 3 4 6 7 8 7 6 6 7 7 3 8 11 6 3 3 3 4 3 3
23 22 20 18 16 15 12 12 10 9 9 8 7 6 4 4 6 4 5 4 3 4 4 7 6 5 6 8 8 6 8 5 8 5 4 5 12 9 4 2 2 2 2
22 22 21 18 18 16 13 12 10 9 9 8 7 8 5 3 3 8 5 5 4 5 5 5 5 12 0 9 8 7 7 6 5 5 6 3 5 7 10 6 4 4 4
23 22 21 20 19 17 13 12 10 10 8 8 7 6 7 4 3 2 3 6 5 2 3 6 4 11 4 9 9 6 5 7 3 7 5 3 5 3 3 10 5 5 4
24 22 20 19 18 17 13 11 11 11 9 8 7 6 5 6 5 4 5 4 5 5 4 4 3 3 3 2 10 3 5 5 3 3 6 4 5 2 2 1 7 12 8
25 23 22 21 19 17 16 16 14 14 11 9 7 6 7 7 7 5 7 5 6 6 4 4 6 7 6 4 10 6 5 4 4 2 1 1 6 3 3 3 3 2 12
27 26 24 23 21 19 17 15 13 12 12 10 7 7 8 9 8 6 3 3 1 6 7 5 4 6 6 6 1 4 7 7 4 2 1 2 1 1 2 2 1 2 2
29 28 26 25 23 21 17 15 12 10 7 10 9 9 9 10 10 6 7 3 3 3 7 6 7 5 8 6 4 6 1 1 3 4 5 4 2 4 1 2 2 2 2
30 28 27 25 24 22 20 19 18 17 15 13 12 10 9 11 11 10 8 7 6 3 3 5 6 4 4 8 6 3 4 6 3 7 5 4 5 6 5 4 3 4 3
31 29 28 26 24 22 22 19 20 18 15 13 13 11 9 10 11 10 8 8 6 7 7 5 4 5 5 2 4 5 3 3 1 6 4 6 5 4 4 6 5 4 5
31 31 29 28 26 25 24 25 20 20 17 16 15 14 13 12 13 11 10 9 9 6 7 7 5 6 6 4 4 3 5 2 2 2 2 2 3 1 3 4 6 7 6
Wind_Direction
175 171 169 137 130 125 121 115 112 115 109 112 116 120 127 125 123 109 110 106 106 94 90 85 90 96 91 96 96 97 99 104 107 105 105 105 98 101 100 110 121 95 93
151 160 158 139 135 131 127 124 125 123 121 123 123 123 120 120 117 115 110 99 92 95 89 91 96 91 99 102 109 104 100 102 111 112 111 107 97 99 84 75 72 96 94
156 142 149 140 131 126 131 132 133 128 129 130 127 123 126 119 118 109 102 93 91 92 89 95 92 93 105 101 94 91 94 91 106 122 133 122 99 95 91 86 90 92 92
146 147 138 140 132 133 130 133 135 127 125 125 124 127 120 119 112 104 92 92 91 93 90 90 89 90 95 96 91 95 85 81 103 168 95 101 100 99 100 98 99 100 97
147 146 123 143 135 136 134 125 116 121 123 125 127 122 120 114 111 114 110 108 98 97 93 91 91 90 86 93 95 93 88 88 116 134 96 65 96 103 107 113 115 94 80
146 139 135 143 141 135 131 126 121 124 127 123 119 119 120 119 118 114 105 98 104 98 102 99 101 94 88 97 110 101 93 101 166 106 92 89 87 112 99 95 95 97 100
153 134 147 147 141 136 134 129 127 125 124 119 122 123 121 117 114 104 104 103 103 102 100 99 90 85 78 87 100 111 101 98 92 108 98 107 98 102 104 100 101 101 94
146 144 137 146 139 137 134 128 130 129 124 129 129 122 113 107 105 97 93 98 103 102 99 94 88 85 95 103 106 109 118 170 114 82 86 87 95 100 103 102 103 97 96
149 140 151 149 142 141 135 131 134 131 131 130 118 111 111 108 102 100 99 98 95 94 96 96 86 76 107 113 108 106 100 16 85 93 121 102 98 99 97 100 100 98 95
149 148 151 147 153 148 147 136 134 129 129 119 113 115 120 116 110 117 129 95 88 85 89 96 96 85 100 111 110 118 141 201 94 134 86 83 98 101 101 98 97 96 95
157 160 156 149 143 154 143 140 144 134 127 124 129 126 170 126 126 128 73 94 89 89 97 106 110 115 125 108 115 149 201 86 101 91 90 89 98 97 99 101 98 102 97
163 163 161 165 145 171 147 157 144 151 155 146 134 149 136 124 101 104 99 97 90 103 113 117 138 183 199 142 134 194 82 100 85 84 87 79 92 100 105 102 99 103 100
166 163 162 147 166 157 139 167 173 161 146 142 141 165 121 141 151 150 130 156 134 205 143 159 175 173 67 87 105 78 102 116 124 86 98 82 84 102 103 106 108 100 99
167 165 165 161 166 172 160 172 158 155 159 159 150 163 151 171 150 143 121 119 176 88 106 279 90 55 95 123 98 88 78 87 95 101 107 98 88 97 120 116 113 102 101
169 169 168 166 169 166 177 165 162 153 173 144 162 166 178 155 127 155 122 162 98 123 90 131 96 59 108 122 126 109 81 67 80 77 110 112 98 96 95 98 103 111 117
173 175 171 174 173 173 183 171 164 174 148 171 159 154 183 195 133 139 153 96 220 168 103 117 83 95 92 115 121 105 88 90 63 77 91 125 137 133 125 121 120 119 124
177 175 176 180 178 179 180 177 186 171 169 167 154 158 178 198 137 159 149 150 211 131 147 136 142 148 94 111 107 121 106 89 94 86 95 95 148 158 147 165 166 177 191
178 177 179 185 180 183 181 182 182 172 174 172 158 160 174 176 158 163 163 159 149 157 136 138 151 84 342 103 126 129 94 102 96 95 78 54 28 129 153 164 194 209 224
182 179 184 189 182 183 181 187 189 168 192 176 172 176 159 185 182 246 153 115 152 139 184 144 131 137 172 116 132 128 120 109 151 95 95 76 79 2 77 146 173 202 223
185 183 188 190 186 185 184 196 195 180 190 188 190 191 177 191 190 224 124 149 197 157 171 101 116 147 125 121 80 93 107 121 118 104 112 129 95 137 93 89 178 174 173
188 188 190 193 189 188 191 195 194 193 188 198 210 198 191 191 186 189 130 175 176 173 166 148 140 157 146 137 165 141 144 181 176 182 151 39 104 100 52 87 281 320 162
191 193 191 194 193 198 195 201 200 202 191 199 197 178 185 185 181 181 174 193 83 122 165 174 207 158 144 175 271 166 173 172 188 233 178 242 24 63 138 176 75 175 260
194 194 195 194 194 199 201 196 191 197 209 197 188 187 186 189 188 194 182 207 152 227 176 181 192 204 165 179 266 306 155 205 125 155 188 222 181 224 234 198 229 191 222
197 194 197 196 197 197 199 195 198 197 200 199 196 192 172 192 194 194 184 184 196 140 205 186 192 190 255 169 177 222 333 0 337 146 160 205 225 229 206 245 202 203 216
196 196 197 197 199 199 195 210 198 214 207 200 205 186 213 183 199 205 196 197 198 212 197 173 186 215 185 220 201 171 188 228 274 319 116 131 191 229 230 211 251 253 209
196 197 195 193 199 200 198 204 207 205 218 210 206 201 205 199 192 204 205 205 202 209 207 185 197 200 234 237 231 250 260 303 122 242 261 188 8 134 251 229 231 244 243